OpenBCM V1.13 (Linux)

Packet Radio Mailbox

DB0FHN

[JN59NK Nuernberg]

 Login: GUEST





  
I0OJJ  > AMSAT    27.08.26 22:46l 331 Lines 15647 Bytes #999 (0) @ WW
BID : 3TI_IR0EQ
Read: DJ6UX GUEST
Subj: 2Line Orbital Elements
Path: DB0FHN<DB0RKB<DK0WUE<IW2OHX<PI8ZTM<VE3CGR<VE3TOK<IR0AAB<IR0EQ
Sent: 260823/0027z @:IR0EQ.ITA.EU [Rome] $:3TI_IR0EQ

>From i0ojj@rgate.ampr.org Sun Aug 23 02:27:34 2026
Received: from rgate.ampr.org by rgate.ampr.org (JNOS2.0q.1) with SMTP
	id AA4950 ; Sun, 23 Aug 2026 02:27:34 +0200
Received: by rgate.ampr.org with SMTP
	id AA4947 ; Sun, 23 Aug 2026 02:26:34 +0200
Message-Id: <4948@rgate.ampr.org>
>From: i0ojj@rgate.ampr.org

SB KEPS @ AMSAT  $ORB26235.1
2Line Orbital Elements 26235.AMSAT

QST de W1STR

AMSAT Orbital Elements for Amateur Satellites in TLE Format
>From Orbital Analysis Office
New England Sci-Tech STEM Education Center
Natick MA August 23, 2026
To all radio amateurs


These element sets describe the orbits of various satellites 
in use by the amateur radio community. For details see:
www.amsat.org/keplerian-elements-formats/

A daily update of element sets is available at:
www.amsat.org/tle/daily-bulletin.txt
or without bulletin text:
www.amsat.org/tle/dailytle.txt


AO-07
1 07530U 74089B   26234.28416044 -.00000040  00000-0  40168-4 0  9997
2 07530 101.9920 248.2218 0012281   7.0849   4.1233 12.53699135368800
UO-11
1 14781U 84021B   26234.19707105  .00001339  00000-0  14137-3 0  9998
2 14781  97.8125 199.0638 0006917 337.3330  22.7582 14.90935757266961
LO-19
1 20442U 90005G   26234.04318826  .00000070  00000-0  41653-4 0  9995
2 20442  98.8842 257.6587 0011824  18.4968 341.6643 14.34138965911838
AO-27
1 22825U 93061C   26234.63691111  .00000053  00000-0  37205-4 0  9992
2 22825  98.6829 302.0091 0007245 264.3945  95.6412 14.30956729716501
FO-29
1 24278U 96046B   26234.40663799 -.00000007  00000-0  31628-4 0  9991
2 24278  98.5190  74.2016 0348821 284.6486  71.6229 13.53276938482122
GO-32
1 25397U 98043D   26234.44374978  .00000044  00000-0  39303-4 0  9993
2 25397  99.0126 228.8902 0002041  54.7365 305.4004 14.24439221460764
ISS
1 25544U 98067A   26234.50053383  .00009133  00000-0  17025-3 0  9998
2 25544  51.6331 331.8814 0007668  72.6488 287.5339 15.49570248582031
NO-44
1 26931U 01043C   26234.51193493  .00000063  00000-0  54514-4 0  9993
2 26931  67.0496  72.7230 0005645 270.0689  89.9766 14.31976784299946
SO-50
1 27607U 02058C   26234.57332067  .00000803  00000-0  11205-3 0  9990
2 27607  64.5514 283.5686 0073205 250.3023 109.0175 14.83170784274301
CO-55
1 27844U 03031E   26234.49088911  .00000220  00000-0  11411-3 0  9994
2 27844  98.6765 242.2236 0009510   0.7606 359.3586 14.24370161201116
RS-22
1 27939U 03042A   26234.62865205  .00000686  00000-0  11367-3 0  9991
2 27939  98.3492  60.8788 0012474  60.8756  27.8273 14.73567953225338
CO-65
1 32785U 08021C   26234.59331655  .00003634  00000-0  22776-3 0  9993
2 32785  97.8338 217.4431 0009411 152.1610 208.0123 15.09982778995216
CO-66
1 32791U 08021J   26234.61368045  .00017014  00000-0  50583-3 0  9990
2 32791  97.7558 235.8031 0004807  84.2944 275.8846 15.34818480997475
RS-30
1 32953U 08025A   26234.57338466 -.00000058  00000-0 -48977-3 0  9999
2 32953  82.5063 314.1530 0020127 163.8835 196.2889 12.43181892827943
SRMSAT
1 37841U 11058D   26234.60284990  .00000365  00000-0  54061-4 0  9997
2 37841  19.9732  17.4625 0011628 214.7024 230.9239 14.11587746767214
ZACUBE-1
1 39417U 13066B   26233.85517957  .00005216  00000-0  39968-3 0  9995
2 39417  97.8029 196.5046 0042185  33.1206 327.2646 15.01581293690580
Delfi-N3xt
1 39428U 13066N   26234.21985629  .00006154  00000-0  52744-3 0  9992
2 39428  97.8292 154.4875 0073377 348.4960  11.4580 14.95817985684497
GOMX-1
1 39430U 13066Q   26234.50460928  .00001335  00000-0  20616-3 0  9996
2 39430  97.6456  70.7871 0127080 223.9589 135.1456 14.69621626679655
LO-74
1 39440U 13066AA  26233.83411609  .00002117  00000-0  19724-3 0  9991
2 39440  97.8943 183.1247 0057182 167.9967 192.2630 14.94145098686790
AO-73
1 39444U 13066AE  26234.39424342  .00007307  00000-0  44367-3 0  9992
2 39444  97.8341 207.2830 0035042 341.5467  18.4488 15.10305741689658
DTUSAT-2
1 40030U 14033W   26234.26810912  .00006114  00000-0  32410-3 0  9999
2 40030  98.0907 236.2422 0008311  22.8447 337.3152 15.15764627662690
LILACSAT-2
1 40908U 15049K   26234.59521720  .00017401  00000-0  27485-3 0  9990
2 40908  97.4600 274.0399 0006840  27.9506 332.2113 15.53538051606058
Lapan A3
1 41603U 16040E   26234.62711125  .00002829  00000-0  89631-4 0  9999
2 41603  97.1543 228.6244 0011583 130.2512 229.9746 15.33472299564992
CAS-2T
1 41847U 16066G   26234.44766038  .00000420  00000-0  69113-4 0  9998
2 41847  98.3780 309.4254 0340111 288.5728  67.8806 14.44811712514365
TechnoSat
1 42829U 17042E   26234.39813670  .00002620  00000-0  18697-3 0  9997
2 42829  97.4353  29.5837 0016543 224.6549 135.3346 15.05275528496669
AO-91
1 43017U 17073E   26234.60285538  .00007214  00000-0  30712-3 0  9997
2 43017  97.4608 100.4631 0149918  99.0199 262.8033 15.13564568475436
S-Net D
1 43186U 18014G   26234.22752848  .00004292  00000-0  21921-3 0  9996
2 43186  97.5278 138.6042 0009097 139.4478 220.7434 15.17197096468777
S-Net B
1 43187U 18014H   26234.24031256  .00003851  00000-0  19722-3 0  9998
2 43187  97.5284 138.6055 0009839 135.7931 224.4090 15.17165266468779
S-Net A
1 43188U 18014J   26234.22604759  .00004328  00000-0  22094-3 0  9997
2 43188  97.5295 138.8129 0009721 136.5013 223.6988 15.17205313468771
S-Net C
1 43189U 18014K   26234.24458373  .00003777  00000-0  19349-3 0  9995
2 43189  97.5312 138.9163 0011250 130.8779 229.3431 15.17155247467323
Ten-Koh
1 43677U 18084G   26234.49611341  .00002481  00000-0  18839-3 0  9991
2 43677  98.0746  69.6598 0008648 255.6371 104.3893 15.03165023426120
PO-101
1 43678U 18084H   26234.58542594  .00001275  00000-0  10586-3 0  9996
2 43678  98.1211  73.7154 0010473 312.3803  47.6532 15.00667178426172
QO-100
1 43700U 18090A   26234.62783351  .00000142  00000-0  00000-0 0  9991
2 43700   0.0158 141.8906 0002274  31.8441  49.0032  1.00270504 28349
MinXSS-2
1 43758U 18099A   26233.20284919  .00044951  00000-0  76233-3 0  9992
2 43758  97.4480 311.5900 0006419  37.3866 322.7831 15.51359711424197
AO-95
1 43770U 18099N   26234.64020033  .00010608  00000-0  39062-3 0  9991
2 43770  97.4333 294.6807 0010105 110.9123 249.3199 15.27979564423362
SNUSat 2
1 43782U 18099AA  26234.13102783  .00006805  00000-0  29412-3 0  9993
2 43782  97.4009 286.5225 0011647  69.7719 290.4769 15.22732138423069
SnugLite
1 43784U 18099AC  26234.61972338  .00009829  00000-0  35735-3 0  9993
2 43784  97.3822 288.2861 0004236  72.2422 287.9279 15.28455386423468
ITASat 1
1 43786U 18099AE  26234.60220615  .00005590  00000-0  26372-3 0  9996
2 43786  97.3983 284.8018 0013989 117.6712 242.5945 15.19778970422996
EAGLET 1
1 43790U 18099AJ  26234.57828553  .00002958  00000-0  16914-3 0  9998
2 43790  97.4183 282.4874 0012685 113.2440 247.0129 15.13368101422371
ESEO
1 43792U 18099AL  26234.36423932  .00001378  00000-0  10263-3 0  9995
2 43792  97.3943 268.9113 0013816 105.7663 254.5088 15.04419413421752
JO-97
1 43803U 18099AX  26234.40731409  .00015526  00000-0  45017-3 0  9999
2 43803  97.4078 297.5448 0006256  49.6358 310.5431 15.35611042423787
Suomi 100
1 43804U 18099AY  26234.62611990  .00010648  00000-0  37058-3 0  9992
2 43804  97.4134 294.8180 0010724  53.0990 307.1231 15.29821507423579
ISAT
1 43879U 18111D   26233.77398289  .00213597  00000-0  10575-2 0  9999
2 43879  97.5813 174.7596 0008212 100.2113 260.0081 15.81410218421472
UWE-4
1 43880U 18111E   26234.53228979  .00034307  00000-0  60924-3 0  9998
2 43880  97.5814 166.1755 0010021  86.2290 274.0106 15.50080513421040
Sparrow
1 43881U 18111F   26228.98401838  .16116594  28263-5  19760-3 0  9992
2 43881  97.5857 177.1140 0010462 202.8700 157.2139 16.49385238421037
Prox-1
1 44339U 19036A   26234.63196367  .00011327  00000-0  10619-2 0  9993
2 44339  23.9956  29.8955 0006248  83.4334 276.6877 14.91993071383407
Taurus 1
1 44530U 19059C   26234.56792703  .00005263  00000-0  83294-3 0  9991
2 44530  98.6480  43.5707 0009693 103.3724 256.8563 14.72696048368410
TO-108
1 44881U 19093C   26234.61480970  .00000895  00000-0  10687-3 0  9996
2 44881  97.7481 305.2134 0012358 224.3995 135.6231 14.86605434361286
RS-44
1 44909U 19096E   26234.22325462  .00000006  00000-0 -18593-4 0  9991
2 44909  82.5216 295.8323 0217217 350.2819   9.4111 12.79748856310795
SALSAT
1 46495U 20068K   26233.99468229  .00007091  00000-0  24197-3 0  9992
2 46495  97.8884 241.1171 0011274  75.2581 284.9907 15.30622504325427
CSS (TIANHE-1)
1 48274U 21035A   26234.46683157  .00014340  00000-0  18184-3 0  9990
2 48274  41.4688 279.6646 0001557 255.0784 104.9883 15.59157790303511
TeikyoSat 4
1 49396U 21102B   26234.33857861  .00001547  00000-0  99600-4 0  9990
2 49396  97.3651 261.2494 0013574  68.5725 291.6951 15.09707380262705
Z-Sat
1 49399U 21102E   26234.62193312  .00005698  00000-0  27673-3 0  9990
2 49399  97.3300 267.9337 0017058  21.2277 338.9662 15.18715349263526
KOSEN 1
1 49402U 21102H   26234.57728425  .00006256  00000-0  23355-3 0  9992
2 49402  97.3148 275.4654 0012456 340.0963  19.9789 15.27670446264152
HO-113
1 50466U 21131B   26234.62632524  .00000393  00000-0  13486-3 0  9996
2 50466  98.4973 326.6562 0002867 255.4567 104.6304 14.41409012244688
SNUGLITE 2
1 52899U 22065F   26234.65078674  .00000802  00000-0  16064-3 0  9998
2 52899  98.2292  19.4013 0007757 165.9804 194.1616 14.64450478220728
UmKA 1 (RS40S)
1 57172U 23091G   26234.59866934  .00004901  00000-0  22088-3 0  9991
2 57172  97.4999 293.0504 0010986 243.6338 116.3770 15.21461399174106
CubeBel-2 (EU11S)
1 57175U 23091K   26234.63531726  .00011585  00000-0  39366-3 0  9990
2 57175  97.4998 298.4964 0008147 231.6017 128.4492 15.30603246174467
RS-38S
1 57189U 23091Z   26234.61830928  .00015922  00000-0  42853-3 0  9993
2 57189  97.5041 305.5102 0007058 179.2248 180.9009 15.37925053174893
